This is the latest recevied weather packets stored in our database for station/object AA6HF. If no packets are shown the sender has not sent any weather packets the latest 10 day(s).
| Time | Temp. | Humidity | Pressure | Rain* | Wind** | Luminosity | Snow |
|---|---|---|---|---|---|---|---|
| 1788686210 | 28.89° C | 48% | 1008.7 hPa | 0 mm | - | - | - |
| 1788685910 | 30° C | 43% | 1008.7 hPa | 0 mm | - | - | - |
| 1788685610 | 30° C | 36% | 1008.8 hPa | 0 mm | - | - | - |
| 1788685310 | 30° C | 34% | 1008.7 hPa | 0 mm | - | - | - |
| 1788685010 | 29.44° C | 35% | 1008.7 hPa | 0 mm | - | - | - |
| 1788684710 | 30° C | 35% | 1008.5 hPa | 0 mm | - | - | - |
| 1788684410 | 30° C | 34% | 1008.5 hPa | 0 mm | - | - | - |
| 1788684110 | 30° C | 32% | 1008.5 hPa | 0 mm | - | - | - |
| 1788683810 | 30° C | 31% | 1008.5 hPa | 0 mm | - | - | - |
| 1788683510 | 30.56° C | 31% | 1008.5 hPa | 0 mm | - | - | - |
| 1788683210 | 30.56° C | 31% | 1008.4 hPa | 0 mm | - | - | - |
| 1788682910 | 30.56° C | 31% | 1008.5 hPa | 0 mm | - | - | - |
| 1788682610 | 30.56° C | 31% | 1008.6 hPa | 0 mm | - | - | - |
| 1788682310 | 30.56° C | 31% | 1008.7 hPa | 0 mm | - | - | - |
| 1788682010 | 30.56° C | 31% | 1008.6 hPa | 0 mm | - | - | - |
| 1788681710 | 31.11° C | 30% | 1008.6 hPa | 0 mm | - | - | - |
| 1788681410 | 31.11° C | 30% | 1008.6 hPa | 0 mm | - | - | - |
| 1788681110 | 31.11° C | 30% | 1008.6 hPa | 0 mm | - | - | - |
| 1788680810 | 31.11° C | 30% | 1008.5 hPa | 0 mm | - | - | - |
| 1788680510 | 31.11° C | 30% | 1008.6 hPa | 0 mm | - | - | - |
| 1788680211 | 31.11° C | 31% | 1008.6 hPa | 0 mm | - | - | - |
| 1788679910 | 31.11° C | 30% | 1008.5 hPa | 0 mm | - | - | - |
| 1788679611 | 31.11° C | 30% | 1008.6 hPa | 0 mm | - | - | - |
| 1788679311 | 31.11° C | 30% | 1008.6 hPa | 0 mm | - | - | - |
| 1788679011 | 30.56° C | 31% | 1008.5 hPa | 0 mm | - | - | - |
* Rain latest hour (hover to see other rain measurements)
** Current wind speed in m/s (hover to see current wind gust speed)